sat.trackr.live / text

‹ back to catalog

STARLINK-5732

NORAD 55572 · 2023-020D

PAYLOAD ACTIVE UNKNOWN

§ Identity

Operator
Country
US
Launch date
2023-02-12
Launch site
AFETR
Launch vehicle
Mass (kg)
RCS (m²)

Purposes: comms

External: N2YO · Heavens-Above · Gunter

§ Orbital elements

Epoch: 2026-05-25T03:05:03.503328Z

Period
94.27 min
Inclination
43.0011°
Eccentricity
0.0001072
Mean motion
15.27575249 rev/d
Perigee alt
482.3 km
Apogee alt
483.8 km
Semi-major
6,861.2 km
B*
1.0074e-5
RAAN
296.8876°
Arg perigee
273.0152°
Mean anomaly
87.0577°
Rev number
18,056

§ Raw data

STARLINK-57321 55572U 23020D   26145.12851277  .00000015  00000+0  10074-4 0  99932 55572  43.0011 296.8876 0001072 273.0152  87.0577 15.27575249180562

JSON: /api/v1/satellites/55572 · /tle

For live sub-satellite position, see the globe view (requires WebGL).

§ Visibility from observer

Set your observer location to see the next 7 days of passes ≥ 10°. The values pass through the URL so the page stays shareable.

No JS? Fill the form by hand. The geolocation button needs JavaScript.